Location: Newark
(48.6461°N, 4.3644°W)
Time: 21:59:19
(UTC+00:00)

Transit 4A - Pass Details

Date: 27 January 2020
Orbit: 872 x 973 km, 66.8° (Epoch: 20 February)

Event Time Altitude Azimuth Distance (km) Brightness Sun altitude
Rises 13:33:41 0° 325° (NW) 3,478 10.5 21.4°
Reaches altitude 10° 13:36:24 10° 335° (NNW) 2,532 9.8 21.2°
Maximum altitude 13:41:44 35° 41° (NE) 1,377 8.6 21.0°
Drops below altitude 10° 13:47:03 10° 106° (ESE) 2,531 10.2 20.7°
Sets 13:49:46 0° 115° (ESE) 3,476 11.0 20.5°
